Regional Weather Roundup
Issued by NWS

Home | Current Version | Previous Version | Text Only | Print | Product List | Glossary Off
Versions: 1 2 3 4 5 6 7 8 9 10 11 12 13 14 15 16 17 18 19 20 21 22 23 24 25 26 27 28 29 30 31 32 33 34 35 36 37 38 39 40 41 42 43 44 45 46 47 48 49 50

000
ASUS43 KFSD 180402
RWRSD

WEATHER ROUNDUP FOR SOUTH DAKOTA
NATIONAL WEATHER SERVICE SIOUX FALLS SD
1000 PM CST WED DEC 17 2014

NOTE: "FAIR" INDICATES FEW OR NO CLOUDS BELOW 12,000 FEET WITH NO
SIGNIFICANT WEATHER AND/OR OBSTRUCTIONS TO VISIBILITY.


SDZ001>005-009-010-012>017-180500-
NORTHWEST AND NORTH CENTRAL SOUTH DAKOTA

CITY           SKY/WX    TMP DP  RH WIND       PRES   REMARKS
BUFFALO          N/A     21  18  88 S9        29.93S WCI  11
FAITH            N/A     20  15  81 SE13      30.06S WCI   7
MOBRIDGE       CLOUDY    18  12  77 SE9       30.15F WCI   7
$$

SDZ012>016-024>037-041>051-057-063-072>074-180500-
SOUTHWEST AND SOUTH CENTRAL SOUTH DAKOTA

CITY           SKY/WX    TMP DP  RH WIND       PRES   REMARKS
RAPID CTY ARPT CLOUDY    22  20  92 S3        30.01S
PIERRE         CLOUDY    18  16  92 SE13      30.16F WCI   5
CUSTER         CLEAR     22  16  78 W7        29.90R WCI  13
ELLSWORTH AFB  CLOUDY    21  21 100 SE3       30.00S
PHILIP         CLOUDY    21  18  88 E8        30.08S WCI  11
PINE RIDGE     CLOUDY    19  16  88 W5        30.01S WCI  12
WINNER         CLOUDY    22  18  85 SE12      30.15S WCI  10
$$

SDZ004>011-016>023-039-040-180500-
NORTHEAST SOUTH DAKOTA

CITY           SKY/WX    TMP DP  RH WIND       PRES   REMARKS
ABERDEEN       CLOUDY    13   8  81 CALM      30.26S
WATERTOWN      PTCLDY     6   3  87 CALM      30.22S
SISSETON         N/A      1  -3  83 CALM      30.27F
$$

SDZ017-020-022-023-036>040-048>070-180500-
SOUTHEAST SOUTH DAKOTA

CITY           SKY/WX    TMP DP  RH WIND       PRES   REMARKS
SIOUX FALLS    PTCLDY     8   6  92 NE3       30.26R
HURON          PTCLDY    10   7  87 S6        30.26S WCI   0
MITCHELL       MOCLDY    11   8  88 CALM      30.27R
YANKTON        CLOUDY    14   9  79 CALM      30.28S
$$

ABBREVIATIONS USED IN REMARKS
   TC - TEMPERATURE IN CELSIUS
  WCI - WIND CHILL INDEX
   HX - HEAT INDEX
  VSB - VISIBILITY




USA.gov is the U.S. government's official web portal to all federal, state and local government web resources and services.